This is the latest recevied weather packets stored in our database for station/object IT9KWW-13. If no packets are shown the sender has not sent any weather packets the latest 1 day(s).
| Time | Temp. | Humidity | Pressure | Rain* | Wind** | Luminosity | Snow |
|---|---|---|---|---|---|---|---|
| 1777990485 | 20.56° C | 72% | 1012.9 hPa | 0 mm | 5.36 m/s, 202° | - | - |
| 1777990364 | 21.11° C | 72% | 1012.9 hPa | 0 mm | 3.58 m/s, 202° | - | - |
| 1777990233 | 21.11° C | 73% | 1012.9 hPa | 0 mm | 4.47 m/s, 180° | - | - |
| 1777990113 | 21.11° C | 72% | 1012.9 hPa | 0 mm | 4.02 m/s, 180° | - | - |
| 1777989993 | 21.11° C | 71% | 1012.9 hPa | 0 mm | 4.02 m/s, 202° | - | - |
| 1777989861 | 21.11° C | 72% | 1012.9 hPa | 0 mm | 1.79 m/s, 180° | - | - |
| 1777989741 | 21.11° C | 71% | 1012.9 hPa | 0 mm | 4.92 m/s, 202° | - | - |
| 1777989621 | 21.11° C | 70% | 1012.9 hPa | 0 mm | 4.47 m/s, 202° | - | - |
| 1777989489 | 21.11° C | 71% | 1012.9 hPa | 0 mm | 3.13 m/s, 180° | - | - |
| 1777989369 | 21.11° C | 72% | 1012.9 hPa | 0 mm | 3.58 m/s, 180° | - | - |
| 1777989249 | 21.11° C | 72% | 1012.9 hPa | 0 mm | 4.02 m/s, 202° | - | - |
| 1777989117 | 21.11° C | 71% | 1012.9 hPa | 0 mm | 2.24 m/s, 180° | - | - |
| 1777988997 | 21.11° C | 70% | 1012.9 hPa | 0 mm | 3.13 m/s, 135° | - | - |
| 1777988876 | 21.11° C | 71% | 1012.9 hPa | 0 mm | 5.36 m/s, 180° | - | - |
| 1777988745 | 21.11° C | 71% | 1012.9 hPa | 0 mm | 4.92 m/s, 202° | - | - |
| 1777988625 | 21.11° C | 71% | 1012.9 hPa | 0 mm | 4.47 m/s, 202° | - | - |
| 1777988504 | 21.11° C | 70% | 1012.9 hPa | 0 mm | 4.92 m/s, 202° | - | - |
| 1777988373 | 21.11° C | 72% | 1012.9 hPa | 0 mm | 3.58 m/s, 158° | - | - |
| 1777988253 | 21.11° C | 70% | 1012.9 hPa | 0 mm | 4.02 m/s, 202° | - | - |
| 1777988133 | 21.11° C | 70% | 1012.9 hPa | 0 mm | 4.92 m/s, 135° | - | - |
| 1777988001 | 21.11° C | 70% | 1012.9 hPa | 0 mm | 4.02 m/s, 202° | - | - |
| 1777987881 | 21.11° C | 71% | 1013.9 hPa | 0 mm | 3.58 m/s, 202° | - | - |
| 1777987761 | 21.11° C | 71% | 1013.9 hPa | 0 mm | 4.47 m/s, 202° | - | - |
| 1777987629 | 21.11° C | 70% | 1013.9 hPa | 0 mm | 6.26 m/s, 180° | - | - |
| 1777987508 | 21.11° C | 69% | 1013.9 hPa | 0 mm | 5.36 m/s, 202° | - | - |
* Rain latest hour (hover to see other rain measurements)
** Current wind speed in m/s (hover to see current wind gust speed)